This is the latest recevied weather packets stored in our database for station/object K9NZF-1. If no packets are shown the sender has not sent any weather packets the latest 10 day(s).
| Time | Temp. | Humidity | Pressure | Rain* | Wind** | Luminosity | Snow |
|---|---|---|---|---|---|---|---|
| 1778260089 | 16.67° C | 59% | 1011 hPa | 0 mm | - | 448 W/m² | - |
| 1778260028 | 16.67° C | 59% | 1011 hPa | 0 mm | - | 448 W/m² | - |
| 1778259967 | 16.67° C | 59% | 1011 hPa | 0 mm | - | 471 W/m² | - |
| 1778259909 | 16.67° C | 59% | 1011.1 hPa | 0 mm | - | 490 W/m² | - |
| 1778259847 | 16.67° C | 60% | 1011.1 hPa | 0 mm | - | 309 W/m² | - |
| 1778259785 | 16.67° C | 60% | 1011.1 hPa | 0 mm | - | 309 W/m² | - |
| 1778259727 | 16.67° C | 58% | 1011.2 hPa | 0 mm | - | 297 W/m² | - |
| 1778259665 | 16.67° C | 61% | 1011.2 hPa | 0 mm | - | 322 W/m² | - |
| 1778259606 | 16.67° C | 60% | 1011.2 hPa | 0 mm | - | 346 W/m² | - |
| 1778259546 | 16.67° C | 59% | 1011.2 hPa | 0 mm | - | 362 W/m² | - |
| 1778259486 | 16.67° C | 58% | 1011.3 hPa | 0 mm | - | 381 W/m² | - |
| 1778259427 | 16.67° C | 58% | 1011.3 hPa | 0 mm | - | 385 W/m² | - |
| 1778259367 | 16.67° C | 59% | 1011.3 hPa | 0 mm | - | 392 W/m² | - |
| 1778259308 | 16.67° C | 59% | 1011.3 hPa | 0 mm | - | 297 W/m² | - |
| 1778259245 | 16.67° C | 59% | 1011.3 hPa | 0 mm | - | 297 W/m² | - |
| 1778259185 | 16.67° C | 59% | 1011.3 hPa | 0 mm | - | 244 W/m² | - |
| 1778259123 | 16.67° C | 58% | 1011.3 hPa | 0 mm | - | 232 W/m² | - |
| 1778259064 | 16.67° C | 58% | 1011.3 hPa | 0 mm | - | 244 W/m² | - |
| 1778258997 | 16.67° C | 60% | 1011.3 hPa | 0 mm | - | 301 W/m² | - |
| 1778258937 | 16.67° C | 58% | 1011.4 hPa | 0 mm | - | 334 W/m² | - |
| 1778258877 | 16.67° C | 59% | 1011.4 hPa | 0 mm | - | 330 W/m² | - |
| 1778258817 | 16.67° C | 59% | 1011.5 hPa | 0 mm | - | 366 W/m² | - |
| 1778258754 | 16.67° C | 59% | 1011.4 hPa | 0 mm | - | 369 W/m² | - |
| 1778258701 | 16.11° C | 58% | 1011.4 hPa | 0 mm | - | 325 W/m² | - |
| 1778258633 | 16.11° C | 58% | 1011.5 hPa | 0 mm | - | 272 W/m² | - |
* Rain latest hour (hover to see other rain measurements)
** Current wind speed in m/s (hover to see current wind gust speed)